User: anonymous   Login
Location: Barrialito
(9.8982°N, 67.7750°W)
Time: 21:07:14
(UTC+00:00)
Language:

Cosmos 2181 Rocket - Orbit

View from above orbital plane
View from above orbital plane
View from above satellite
View from above satellite

Ground track
Ground track

The orbit data is extracted from the following two-line orbital elements,

1 21903U 92012B   24170.28109554  .00000080  00000-0  67640-4 0  9992
2 21903  82.9372  88.7032 0043039 160.7017 312.0176 13.74655124618729
Epoch (UTC): 18 June 2024 06:44:46
Eccentricity: 0.0043039
inclination: 82.9372°
perigee height: 951 km
apogee height: 1014 km
right ascension of ascending node: 88.7032°
argument of perigee: 160.7017°
revolutions per day: 13.74655124
mean anomaly at epoch: 312.0176°
orbit number at epoch: 61872

The dashed part of the orbit path shows where the satellite is in the earth's shadow,  

DLR